Hourly Data Report for July 07, 2021

ST. JOHN'S INTL A
NEWFOUNDLAND
Current Station Operator: NAVCAN

47°37'07.000" N
52°45'09.000" W
140.50 m
8403505
71801
YYT

Download Data

Hourly Data (July 2021)
Hourly Data Report for July 7, 2021
TIME
LST
Temp Definition
°C
Dew Point Definition
°C
Rel Hum Definition
%
Precip. Amount Definition
mm

Wind Dir Definition
10's deg

Wind Spd Definition
km/h
Visibility Definition
km
Stn Press Definition
kPa
Hmdx Definition


Wind Chill Definition


Weather Definition


00:30 14.8 13.3 90   27 52 24.1 99.21     LegendNANA
01:30 14.4 13.2 93   28 48 24.1 99.18     LegendNANA
02:30 14.3 12.8 91   27 37 24.1 99.21     Cloudy
03:30 14.3 12.0 86   26 36 24.1 99.21     LegendNANA
04:30 13.6 12.3 92   26 23 24.1 99.20     LegendNANA
05:30 13.7 12.9 95   26 26 19.3 99.19     Cloudy
06:30 14.3 13.5 95   26 32 16.1 99.14     LegendNANA
07:30 16.4 14.4 88   27 34 24.1 99.09     LegendNANA
08:30 17.3 14.9 85   26 44 19.3 99.05     Mostly Cloudy
09:30 17.6 15.2 85   27 37 24.1 99.05     LegendNANA
10:30 19.1 15.8 81   26 42 24.1 99.00     LegendNANA
11:30 19.4 16.6 83   25 31 24.1 98.98     Mostly Cloudy
12:30 19.7 16.9 84   25 28 24.1 98.96     LegendNANA
13:30 19.7 16.1 80   26 42 24.1 98.89     LegendNANA
14:30 18.3 15.5 83   25 41 24.1 98.88     Mostly Cloudy
15:30 17.2 15.1 87   26 35 19.3 98.90     LegendNANA
16:30 17.3 15.4 89   26 37 24.1 98.87     LegendNANA
17:30 17.6 16.0 90   26 29 24.1 98.89     Cloudy
18:30 17.9 15.8 87   26 36 24.1 98.89     LegendNANA
19:30 15.3 14.6 95   27 37 4.0 98.94     Fog
20:30 14.8 14.2 96   26 36 9.7 98.97     Fog
21:30 15.1 14.7 97   25 29 16.1 99.02     LegendNANA
22:30 14.9 14.4 97   26 34 9.7 99.04     Fog
23:30 15.5 14.9 96   24 21 16.1 99.01     Mostly Cloudy

Notes on Data Quality.

Legend

  • E = Estimated
  • M = Missing
  • NA = Not Available*
  • [empty] = Indicates an unobserved value
Date modified: